TimeCDT,TemperatureF,Dew PointF,Humidity,Sea Level PressureIn,VisibilityMPH,Wind Direction,Wind SpeedMPH,Gust SpeedMPH,PrecipitationIn,Events,Conditions,WindDirDegrees,DateUTC
12:54 AM,73.9,70.0,87,29.89,10.0,West,4.6,-,N/A,,Clear,280,2013-07-10 05:54:00
1:54 AM,72.0,68.0,87,29.91,10.0,Calm,Calm,-,N/A,,Clear,0,2013-07-10 06:54:00
2:54 AM,71.1,66.9,87,29.92,10.0,NW,4.6,-,N/A,,Clear,320,2013-07-10 07:54:00
3:54 AM,69.1,66.0,90,29.93,10.0,West,4.6,-,N/A,,Clear,280,2013-07-10 08:54:00
4:54 AM,68.0,64.9,90,29.94,10.0,NW,6.9,-,N/A,,Clear,320,2013-07-10 09:54:00
5:54 AM,66.9,64.9,93,29.94,10.0,NNW,11.5,-,N/A,,Clear,330,2013-07-10 10:54:00
6:54 AM,68.0,64.9,90,29.96,10.0,NW,9.2,-,N/A,,Clear,320,2013-07-10 11:54:00
7:39 AM,69.8,64.4,83,29.99,10.0,NNW,11.5,-,N/A,,Mostly Cloudy,330,2013-07-10 12:39:00
7:52 AM,69.8,64.4,83,29.99,10.0,NNW,12.7,-,N/A,,Scattered Clouds,340,2013-07-10 12:52:00
7:54 AM,70.0,64.9,84,29.97,10.0,NNW,15.0,-,N/A,,Scattered Clouds,340,2013-07-10 12:54:00
8:54 AM,72.0,62.1,71,29.99,10.0,North,17.3,-,N/A,,Scattered Clouds,350,2013-07-10 13:54:00
9:54 AM,73.0,57.0,57,30.00,10.0,NNW,17.3,-,N/A,,Clear,340,2013-07-10 14:54:00
10:54 AM,73.9,55.9,53,30.00,10.0,North,18.4,-,N/A,,Clear,350,2013-07-10 15:54:00
11:54 AM,75.9,55.0,48,30.01,10.0,North,13.8,19.6,N/A,,Clear,360,2013-07-10 16:54:00
12:54 PM,78.1,57.0,48,30.03,10.0,NNE,6.9,-,N/A,,Clear,30,2013-07-10 17:54:00
1:54 PM,79.0,54.0,42,30.02,10.0,North,9.2,18.4,N/A,,Clear,350,2013-07-10 18:54:00
2:54 PM,80.1,55.0,42,30.02,10.0,North,8.1,-,N/A,,Clear,10,2013-07-10 19:54:00
3:54 PM,81.0,53.1,38,30.02,10.0,North,10.4,-,N/A,,Clear,10,2013-07-10 20:54:00
4:54 PM,81.0,53.1,38,30.00,10.0,North,10.4,18.4,N/A,,Clear,350,2013-07-10 21:54:00
5:54 PM,80.1,54.0,40,29.99,10.0,NW,9.2,-,N/A,,Clear,310,2013-07-10 22:54:00
6:54 PM,79.0,54.0,42,29.99,10.0,NNW,9.2,-,N/A,,Clear,330,2013-07-10 23:54:00
7:54 PM,75.0,57.9,55,29.98,10.0,NNW,4.6,-,N/A,,Clear,340,2013-07-11 00:54:00
8:54 PM,71.1,57.9,63,29.98,10.0,NW,3.5,-,N/A,,Clear,320,2013-07-11 01:54:00
9:54 PM,66.9,60.1,79,30.01,10.0,Calm,Calm,-,N/A,,Clear,0,2013-07-11 02:54:00
10:54 PM,64.0,60.1,87,30.04,10.0,Calm,Calm,-,N/A,,Clear,0,2013-07-11 03:54:00
11:54 PM,63.0,59.0,87,30.05,10.0,Calm,Calm,-,N/A,,Clear,0,2013-07-11 04:54:00